Dayton, OH

8:01 PM EST on December 03, 2016 (GMT -0500)
Wright-Patterson Air Force Base

Weather History for KFFO - March, 2012

Change the Weather History Date:

Tuesday, March 6, 2012

  Actual Average Record
Temperature  
Mean Temperature 44 °F -  
Max Temperature 62 °F 43 °F 64 °F (2009)
Min Temperature 27 °F 24 °F 5 °F (2015)
Degree Days  
Heating Degree Days 20    
Moisture  
Dew Point 24 °F    
Average Humidity 48    
Maximum Humidity 81    
Minimum Humidity 24    
Precipitation  
Precipitation 0.00 in - - ()
Sea Level Pressure  
Sea Level Pressure 30.33 in    
Wind  
Wind Speed 10 mph (South)    
Max Wind Speed 22 mph    
Max Gust Speed 29 mph    
Visibility 10 miles    
Events      
Averages and records for this station are not official NWS values.
T = Trace of Precipitation, MM = Missing Value Source: NWS Daily Summary

Daily Weather History Graph

Daily Weather History Graph

Search for Another Location

Airport or City:

Trip Planner

Search our weather history database for the weather conditions in past years. The results will help you decide how hot, cold, wet, or windy it might be!

Date:

Astronomy

Mar. 06, 2012 Rise Set
Actual Time 7:01 AM EST 6:34 PM EST
Civil Twilight 6:34 AM EST 7:01 PM EST
Nautical Twilight 6:02 AM EST 7:32 PM EST
Astronomical Twilight 5:31 AM EST 8:03 PM EST
Moon 4:59 PM EST (3/6) 5:36 AM EST (3/6)
Length of Visible Light 12h 27m
Length of Day
11h 33m
Waxing Gibbous, 96% of the Moon is Illuminated
Mar 6
Waxing Gibbous
Mar 8
Full
Mar 14
Last Quarter
Mar 22
New
Mar 30
First Quarter

Hourly Weather History & Observations

Time (EST) Temp. Windchill Dew Point Humidity Pressure Visibility Wind Dir Wind Speed Gust Speed Precip Events Conditions
12:55 AM 27.9 °F 21.5 °F 20.7 °F 74% 30.47 in 10.0 mi SSE 5.8 mph - N/A   Partly Cloudy
1:55 AM 27.1 °F 20.7 °F 21.6 °F 80% 30.47 in 10.0 mi South 5.8 mph - N/A   Scattered Clouds
2:55 AM 27.3 °F 23.4 °F 21.9 °F 80% 30.44 in 10.0 mi South 3.5 mph - N/A   Mostly Cloudy
3:55 AM 27.9 °F 22.6 °F 22.6 °F 81% 30.44 in 10.0 mi SSE 4.6 mph - N/A   Mostly Cloudy
4:55 AM 28.4 °F 21.2 °F 22.3 °F 78% 30.44 in 10.0 mi South 6.9 mph - N/A   Scattered Clouds
5:55 AM 28.0 °F 20.0 °F 21.2 °F 76% 30.44 in 10.0 mi SSE 8.1 mph - N/A   Partly Cloudy
6:55 AM 29.7 °F 20.7 °F 22.5 °F 75% 30.42 in 10.0 mi SSE 10.4 mph - N/A   Mostly Cloudy
7:55 AM 31.1 °F 23.1 °F 22.6 °F 71% 30.43 in 10.0 mi South 9.2 mph - N/A   Scattered Clouds
8:55 AM 34.2 °F 25.2 °F 22.8 °F 63% 30.42 in 10.0 mi SSE 12.7 mph - N/A   Partly Cloudy
9:55 AM 39.7 °F 31.5 °F 22.5 °F 50% 30.40 in 10.0 mi South 15.0 mph - N/A   Partly Cloudy
10:55 AM 45.9 °F 39.7 °F 23.0 °F 41% 30.40 in 10.0 mi South 13.8 mph - N/A   Partly Cloudy
11:55 AM 51.1 °F - 20.3 °F 30% 30.36 in 10.0 mi South 15.0 mph - N/A   Partly Cloudy
12:55 PM 55.2 °F - 22.8 °F 28% 30.33 in 10.0 mi South 15.0 mph - N/A   Clear
1:55 PM 58.3 °F - 22.6 °F 25% 30.29 in 10.0 mi South 18.4 mph 25.3 mph N/A   Clear
2:55 PM 61.5 °F - 24.1 °F 24% 30.26 in 10.0 mi South 17.3 mph 23.0 mph N/A   Clear
3:52 PM 62.6 °F - 24.8 °F 24% 30.23 in 10.0 mi SSW 16.1 mph 28.8 mph N/A   Clear
3:55 PM 62.2 °F - 25.0 °F 24% 30.25 in 10.0 mi South 21.9 mph 28.8 mph N/A   Clear
4:55 PM 61.7 °F - 26.4 °F 26% 30.25 in 10.0 mi South 15.0 mph - N/A   Clear
5:55 PM 59.5 °F - 27.1 °F 29% 30.24 in 10.0 mi South 15.0 mph - N/A   Clear
6:55 PM 55.8 °F - 28.2 °F 35% 30.23 in 10.0 mi South 10.4 mph - N/A   Partly Cloudy
7:55 PM 54.0 °F - 29.1 °F 39% 30.22 in 10.0 mi SSE 12.7 mph - N/A   Partly Cloudy
8:55 PM 52.9 °F - 30.6 °F 43% 30.23 in 10.0 mi SSE 13.8 mph - N/A   Partly Cloudy
9:55 PM 54.7 °F - 29.8 °F 39% 30.24 in 10.0 mi South 15.0 mph - N/A   Partly Cloudy
10:55 PM 53.6 °F - 28.6 °F 38% 30.23 in 10.0 mi South 12.7 mph - N/A   Partly Cloudy
11:55 PM 52.5 °F - 25.9 °F 36% 30.23 in 10.0 mi South 12.7 mph - N/A   Clear